DELTA 1 DEB, 7846

Orbit data source: Space-Track

DELTA 1 DEB, 7846 is space debris in SSO originally from a launch on Sun, 23 Jul 1972 UTC launched from the Air Force Western Test Range (AFWTR). Debris objects in space refer to the collection of defunct objects orbiting the Earth. Examples of debris include non-operational satellites, rocket bodies, and fragments generated from explosions, collisions, or faulty payload assembly.

Loading next visibility...
Identifier
7846, 1972-058S
Orbit
SSO
Country
Flag of USUS
Related business
Manufacturer
Unknown
Mission
Spacecraft
Bus & Motor
Unknown
Mass
Unknown
Launch date (UTC)
1972-07-23 (54 years ago)
Launch vehicle
Unknown
Launch site
Air Force Western Test Range (AFWTR)
Object type
Payload
Rocket body
Debris
Shape & HBR
Unknown shape, 0.5 m
Radar Cross Section
Medium (>0.1 m² and <1 m²)

Expand to show TLE details & history
Last TLE update: 1 day ago

TLE from 1 day ago
0 DELTA 1 DEB
1 07846U 72058S   26106.16928738  .00000255  00000-0  66528-4 0  9999
2 07846  98.5884 185.2697 0148195  61.8026 299.8045 14.51888068659093
Epoch: 2026-04-16T04:03Z
TLE epoch observation values (Epoch: 2026-04-16T04:03:46.429Z)
Latitude
-0°
Longitude
-79.99444°
Altitude
671.347 km
Speed
7.548 km/s
True Right ascension
12h 21m 04s
True Declination
0° 00' 00"
Sunlit
Object was in full shadow at epoch
Visualization orbit readout
Latitude
Unknown
Longitude
Unknown
Altitude
Unknown
Speed
Unknown
Apparent Right ascension
Unknown
Apparent Declination
Unknown
Sunlit
N/A
Visualization observer readout
Local Sidereal Time
18:43:19
Azimuth
Unknown
Elevation
Unknown
Doppler factor
Unknown
Orbital elements
Apogee altitude
821.738 km
Perigee altitude
611.457 km
Semi-major axis
7,094.735 km
Eccentricity
0.01482
Inclination
98.5884°
RAAN
185.2697°
Arg. of periapsis
61.8026°
True anomaly
298.31741°
Mean anomaly
299.8045°
Eccentric anomaly
299.06231°
Mean motion
3.63194 °/min
Orbital period
99.12 mins
BSTAR
0.000066528
Loading maneuver chart data...
Computing Atmospheric mass density...
Loading historical data...
Loading historical data...
Loading historical data...
Loading historical data...
Loading historical data...
Loading historical data...
Loading historical data...

Documentation

Showing up to 5 results
|